Wind_Speed
12 13 14 15 16 17 17 16 15 14 14 14 14 14 14 14 14 14 14 13 14 14 13 13 14 14 15 19 20 21 11 14 15 13 14 27 19 23 25 26 23 26 28 30 20
15 15 15 15 16 17 17 17 15 14 13 12 12 12 13 13 13 13 13 14 11 10 11 11 12 12 13 14 17 18 13 10 19 13 15 20 17 19 23 25 25 26 30 28 27
14 17 17 16 16 16 17 17 16 14 13 12 12 12 12 12 12 13 9 8 9 9 9 10 10 10 11 12 14 13 11 18 23 23 16 16 16 21 19 19 20 23 30 29 27
14 15 18 18 17 16 16 17 17 15 13 12 12 12 12 11 6 8 9 8 7 5 5 6 8 9 10 11 16 14 19 21 19 19 17 17 19 18 19 14 18 22 26 22 23
19 16 17 18 19 18 17 17 17 17 15 13 12 12 12 11 11 10 10 8 6 4 5 6 8 9 9 9 14 15 15 18 20 17 18 20 19 18 20 24 24 23 22 22 22
21 21 18 18 19 19 19 18 18 17 16 14 13 13 13 10 12 12 9 8 6 4 5 7 8 10 9 13 10 14 16 17 18 17 18 18 18 21 16 22 21 20 21 20 21
26 23 22 20 19 19 19 19 19 18 17 15 14 14 14 14 12 10 9 8 6 5 5 7 8 9 8 10 13 13 12 13 14 14 13 14 17 17 17 16 18 19 22 22 21
28 28 25 22 21 19 19 20 19 18 17 15 15 15 16 13 10 11 11 9 7 5 6 8 8 8 10 9 7 7 9 8 8 11 14 12 7 10 18 18 20 19 19 19 19
29 29 27 25 22 22 20 19 20 19 17 17 16 15 17 12 14 12 12 10 8 7 7 7 7 7 7 5 5 9 5 10 7 11 12 13 6 14 15 15 17 16 15 13 18
31 30 28 28 24 23 22 20 19 20 19 18 18 15 15 11 12 15 13 12 10 8 7 7 6 6 7 10 3 7 9 8 9 10 12 14 16 13 14 17 20 19 19 17 22
34 32 30 27 27 23 23 20 19 22 21 17 15 16 19 15 14 16 16 13 11 8 5 7 7 7 9 11 12 11 8 7 7 16 15 17 20 18 18 21 25 27 25 24 23
40 33 32 28 27 24 23 22 17 20 24 22 23 23 22 21 19 19 17 13 11 6 9 8 8 17 15 12 10 8 6 7 9 14 13 11 19 17 19 27 28 26 25 26 22
34 40 33 31 27 25 23 22 19 17 23 30 26 26 25 22 20 21 19 15 12 10 10 10 11 12 9 9 7 6 7 7 7 11 13 14 14 12 19 20 18 18 18 18 18
34 30 40 30 29 26 22 21 17 14 13 19 22 22 24 23 21 24 19 17 13 9 11 7 19 14 10 8 7 6 12 9 8 7 5 5 5 8 10 10 11 14 15 16 15
34 33 25 33 29 26 21 18 16 11 5 10 18 19 21 22 14 24 21 17 12 11 9 8 9 8 7 8 8 9 9 9 11 9 12 7 6 7 11 13 15 15 15 13 11
33 34 37 34 30 25 23 18 14 8 9 10 11 17 21 27 20 12 20 19 14 14 13 14 12 12 11 13 10 7 6 10 6 3 4 5 5 9 9 16 16 17 13 12 11
33 33 32 32 44 21 23 18 12 11 8 13 15 19 20 22 24 19 17 18 10 7 10 13 13 17 13 8 9 5 2 2 3 2 2 3 5 9 11 11 15 13 12 11 12
36 34 36 39 33 24 22 23 15 12 26 12 11 17 19 17 19 22 17 16 20 15 6 9 6 11 12 11 4 7 5 4 5 2 3 5 7 4 9 12 13 12 12 11 14
32 34 37 34 35 36 28 30 22 21 17 26 14 15 18 19 14 19 22 14 14 22 13 10 6 12 10 13 12 5 5 8 4 4 5 8 6 13 11 8 11 11 12 14 21
31 27 32 32 32 29 32 42 27 21 22 21 19 15 19 20 22 16 14 11 22 18 26 11 5 9 12 11 14 10 9 1 3 2 4 5 6 6 6 8 8 9 12 16 27
33 34 39 37 30 33 42 41 39 24 26 18 15 13 14 19 20 22 10 12 14 17 22 18 11 5 10 11 10 15 11 9 7 4 3 4 1 5 5 6 9 10 17 24 25
31 35 36 26 43 42 43 39 30 28 32 25 25 20 17 20 16 19 16 16 10 12 21 20 10 5 7 15 15 16 15 15 6 6 6 2 12 20 15 10 9 15 20 23 27
35 31 35 24 44 48 39 39 30 31 37 36 27 18 19 17 12 16 19 21 15 15 13 16 9 5 2 9 18 18 21 21 19 9 12 5 5 11 9 11 21 25 25 25 26
32 38 25 33 40 45 43 42 38 39 38 34 33 33 31 27 26 13 22 20 20 21 22 15 13 11 2 4 5 10 15 17 23 10 12 23 19 20 21 22 23 24 24 25 27
43 20 40 23 46 49 47 44 45 33 34 38 36 30 26 25 24 25 20 20 20 22 24 21 13 17 20 17 17 17 19 20 29 31 17 19 19 20 17 21 25 24 26 29 31
39 30 34 32 29 52 43 43 39 31 36 38 37 34 35 31 27 24 29 26 22 23 26 26 13 13 14 16 18 22 25 29 32 34 36 35 36 21 18 17 21 23 28 29 35
36 30 36 43 40 31 48 45 38 33 35 34 31 32 30 29 30 27 22 18 21 23 21 26 23 11 5 10 10 17 25 29 31 33 28 28 16 16 17 22 22 29 29 32 33
Wind_Direction
310 314 315 315 314 315 316 308 299 291 287 285 286 286 281 273 267 266 267 269 270 267 262 257 249 237 227 227 228 215 223 241 241 241 233 247 239 229 228 230 227 223 224 242 256
307 306 307 308 309 311 312 310 303 298 293 289 285 282 279 273 269 264 262 264 259 254 259 254 250 239 225 227 227 214 233 249 236 217 221 245 225 238 227 230 236 234 240 245 252
295 302 303 301 301 302 305 305 303 299 294 289 286 284 282 280 275 269 258 252 264 262 254 243 237 229 217 221 224 225 223 243 238 241 239 242 230 235 226 230 232 241 244 245 250
276 286 294 297 296 296 296 297 297 297 294 292 292 289 286 281 245 262 268 271 259 237 235 233 225 215 213 225 227 227 231 237 248 245 244 245 235 238 228 219 218 224 239 243 244
282 275 279 286 293 294 293 291 292 294 296 298 297 294 295 287 279 277 275 252 231 227 238 237 221 213 214 219 241 234 251 243 251 253 244 245 246 239 235 230 237 238 237 237 238
277 282 275 275 282 291 292 290 289 289 291 296 303 300 298 281 277 274 248 237 230 218 229 233 227 226 219 235 229 239 245 255 255 253 251 248 245 243 244 235 237 236 235 235 237
281 276 280 276 274 281 289 290 288 289 290 296 298 295 293 280 272 243 230 238 233 218 232 239 231 225 239 251 251 251 258 258 257 249 245 244 246 247 232 229 235 233 238 236 238
277 278 275 279 277 274 278 285 287 287 289 290 291 289 284 277 247 221 229 229 228 243 256 251 236 231 229 243 252 242 244 231 225 241 245 235 230 258 237 237 239 238 240 244 249
272 274 275 273 278 275 271 276 284 285 285 286 287 282 276 265 234 225 233 235 242 259 257 249 241 230 227 215 220 230 255 220 251 242 239 230 218 261 240 235 225 222 225 249 264
273 270 270 273 272 276 272 272 279 281 282 279 277 271 263 254 240 233 236 242 247 258 254 242 237 232 218 203 235 234 229 230 224 262 240 243 247 255 261 246 238 230 233 253 267
275 272 267 268 270 271 275 272 278 282 276 268 257 259 265 262 253 240 235 241 249 254 229 239 227 230 244 224 236 231 226 233 237 251 265 270 262 252 241 248 247 251 250 250 260
263 272 269 263 265 267 269 271 272 274 283 268 265 261 259 259 252 240 232 238 241 227 236 249 246 232 239 252 237 230 247 257 246 273 279 272 268 257 250 245 251 253 248 243 244
271 261 267 264 260 261 264 271 270 274 279 277 267 258 251 247 240 236 224 231 234 228 238 227 233 258 245 237 233 255 245 265 257 281 300 303 285 248 250 245 244 228 219 219 222
271 266 259 263 259 257 259 267 266 275 278 269 261 246 243 231 230 225 218 221 227 215 226 233 252 250 237 229 234 261 266 259 278 314 293 288 299 223 236 223 214 198 195 205 221
269 267 269 253 263 257 253 253 260 256 273 240 235 231 219 200 220 215 216 217 217 231 211 226 252 221 217 223 225 239 264 279 285 286 297 204 244 172 207 205 206 199 209 217 236
260 262 267 263 251 256 251 243 236 204 245 235 223 212 203 201 206 206 209 213 231 235 229 236 250 233 219 242 240 253 289 303 303 271 245 208 233 201 209 208 207 215 224 236 258
256 256 256 265 233 254 246 229 201 208 224 243 224 212 199 207 210 209 212 220 208 198 223 243 242 239 237 236 244 238 284 272 238 220 293 193 238 258 223 186 207 214 227 251 276
250 253 256 260 269 233 238 207 227 229 224 245 222 205 195 199 212 218 222 225 223 218 188 200 217 219 226 201 220 195 199 259 273 290 19 238 237 228 252 217 206 214 238 267 303
248 249 251 247 253 242 218 201 224 225 208 231 217 190 197 206 201 212 225 231 238 224 203 203 190 219 206 206 180 230 212 218 279 284 271 240 265 278 251 208 217 244 258 275 305
237 240 246 235 237 230 210 221 230 232 226 233 228 220 201 205 203 201 209 240 231 222 212 209 168 199 210 203 211 197 211 200 214 261 263 221 270 241 259 224 222 261 279 282 305
235 234 238 239 235 231 215 222 226 227 228 225 216 222 209 196 205 214 207 230 224 213 209 212 206 198 207 219 222 217 213 206 193 211 272 295 226 218 233 249 270 285 297 299 304
222 231 238 240 216 224 224 226 226 218 223 231 234 226 227 230 214 220 224 225 225 213 202 202 195 174 201 231 220 201 212 209 205 195 220 317 274 280 285 263 242 298 300 295 301
223 225 231 229 219 214 238 228 223 224 231 232 231 225 219 220 217 229 222 232 225 209 201 200 210 152 217 243 232 228 234 226 221 221 219 233 252 283 297 284 295 294 291 293 301
229 224 207 217 233 232 222 229 236 236 233 235 238 239 240 240 234 227 221 225 223 212 213 199 216 208 289 180 182 209 230 230 217 210 224 232 264 265 300 306 306 303 305 302 299
233 228 227 223 226 220 230 235 234 228 225 231 232 233 235 228 228 224 227 222 218 222 214 211 226 234 243 261 260 259 258 245 232 245 226 262 261 273 276 282 280 291 294 298 302
236 238 228 231 240 225 216 223 231 241 234 227 233 235 232 233 242 244 239 232 228 223 220 219 233 248 264 257 261 265 263 261 254 253 253 259 275 284 279 279 299 302 304 303 306
235 233 222 236 234 237 228 228 245 236 241 225 235 233 234 236 232 238 245 240 231 234 231 222 227 239 250 258 284 278 270 258 251 263 266 249 293 278 289 297 307 311 307 304 307
Height
3095 3094 3092 3091 3091 3088 3085 3083 3082 3080 3079 3078 3077 3076 3075 3074 3073 3072 3071 3072 3070 3070 3070 3070 3071 3071 3072 3073 3075 3077 3081 3081 3082 3083 3085 3077 3080 3080 3081 3082 3085 3086 3085 3083 3090
3095 3092 3091 3089 3088 3087 3085 3083 3080 3079 3077 3075 3074 3074 3073 3072 3069 3068 3069 3068 3067 3067 3067 3067 3068 3069 3070 3071 3072 3074 3078 3080 3077 3077 3077 3075 3078 3077 3080 3080 3081 3082 3082 3084 3085
3091 3091 3089 3087 3085 3084 3083 3082 3079 3077 3075 3074 3072 3071 3070 3068 3067 3065 3065 3065 3065 3064 3064 3064 3065 3067 3068 3069 3070 3072 3075 3073 3072 3072 3072 3072 3074 3074 3076 3077 3079 3078 3078 3080 3082
3086 3086 3087 3086 3084 3082 3080 3079 3078 3076 3073 3072 3070 3068 3066 3066 3067 3063 3062 3061 3062 3062 3062 3063 3064 3065 3066 3067 3068 3069 3069 3069 3067 3068 3069 3070 3069 3071 3073 3076 3074 3074 3073 3076 3077
3086 3082 3082 3082 3082 3079 3078 3076 3075 3073 3070 3069 3067 3066 3064 3062 3061 3060 3060 3059 3059 3059 3060 3061 3062 3063 3064 3066 3065 3066 3066 3065 3065 3066 3066 3066 3067 3068 3068 3069 3069 3070 3072 3073 3074
3082 3082 3078 3077 3077 3076 3075 3073 3071 3070 3068 3066 3063 3062 3061 3060 3059 3058 3058 3058 3057 3057 3058 3060 3060 3061 3062 3062 3063 3062 3062 3062 3062 3063 3063 3063 3063 3062 3065 3065 3065 3066 3068 3069 3070
3080 3077 3076 3073 3072 3071 3070 3069 3067 3066 3064 3062 3060 3059 3058 3058 3056 3056 3056 3056 3055 3055 3056 3057 3057 3058 3059 3059 3059 3060 3061 3059 3059 3059 3060 3060 3060 3058 3060 3061 3062 3064 3064 3065 3067
3074 3074 3072 3071 3068 3066 3066 3065 3064 3062 3060 3058 3057 3055 3054 3054 3053 3054 3054 3054 3054 3054 3055 3055 3055 3055 3056 3057 3057 3058 3059 3060 3057 3056 3056 3058 3058 3055 3056 3058 3059 3059 3060 3061 3063
3067 3068 3068 3066 3065 3063 3061 3060 3060 3058 3056 3055 3053 3052 3051 3051 3051 3051 3052 3053 3052 3053 3053 3053 3053 3053 3054 3056 3058 3056 3057 3058 3056 3054 3054 3055 3056 3053 3053 3054 3055 3057 3059 3060 3058
3060 3061 3062 3062 3060 3059 3058 3056 3055 3054 3053 3051 3049 3051 3048 3048 3048 3048 3050 3051 3051 3051 3051 3052 3052 3052 3053 3055 3055 3054 3055 3054 3056 3052 3051 3051 3051 3052 3050 3050 3052 3054 3056 3057 3055
3054 3054 3055 3055 3054 3054 3054 3053 3053 3051 3048 3048 3046 3045 3044 3045 3046 3045 3047 3048 3048 3049 3050 3050 3051 3051 3053 3053 3051 3051 3051 3053 3053 3048 3049 3048 3047 3048 3048 3046 3047 3049 3050 3051 3051
3045 3045 3047 3048 3048 3048 3048 3048 3047 3047 3043 3042 3040 3039 3039 3040 3041 3041 3045 3047 3046 3047 3048 3050 3050 3048 3047 3047 3048 3048 3049 3051 3050 3046 3045 3044 3042 3042 3042 3039 3040 3042 3044 3044 3045
3036 3037 3039 3040 3041 3042 3041 3043 3043 3042 3039 3033 3033 3032 3033 3036 3036 3037 3041 3042 3043 3045 3046 3048 3046 3045 3045 3045 3046 3047 3047 3048 3048 3044 3041 3039 3033 3032 3031 3031 3033 3036 3037 3039 3042
3026 3027 3030 3032 3036 3036 3035 3038 3039 3038 3036 3028 3024 3022 3025 3029 3031 3031 3035 3039 3040 3042 3043 3045 3041 3042 3043 3044 3044 3046 3043 3043 3043 3044 3043 3040 3035 3030 3028 3029 3030 3032 3035 3038 3040
3018 3018 3019 3024 3026 3029 3030 3031 3034 3035 3034 3022 3016 3017 3018 3024 3025 3026 3031 3033 3037 3038 3041 3040 3038 3039 3042 3042 3041 3042 3041 3041 3041 3041 3040 3037 3038 3029 3027 3028 3028 3030 3033 3036 3038
3009 3010 3011 3014 3017 3022 3023 3026 3030 3034 3025 3014 3011 3011 3015 3017 3021 3023 3027 3030 3032 3034 3035 3035 3036 3038 3039 3038 3039 3039 3039 3039 3037 3039 3038 3034 3035 3026 3024 3025 3026 3028 3031 3033 3035
3000 3001 3001 3002 3006 3013 3017 3021 3026 3019 3013 3009 3007 3008 3012 3014 3017 3020 3023 3025 3028 3032 3032 3032 3033 3033 3035 3037 3037 3037 3039 3039 3038 3037 3031 3031 3032 3022 3021 3022 3025 3026 3028 3030 3031
2990 2991 2992 2994 2998 3004 3009 3015 3012 3001 3006 3004 3004 3006 3009 3012 3015 3017 3019 3022 3023 3026 3030 3031 3032 3029 3031 3035 3037 3037 3039 3038 3034 3026 3026 3029 3024 3020 3018 3019 3022 3024 3026 3027 3028
2980 2980 2981 2986 2989 2993 2997 3000 2993 2998 2998 3000 3003 3005 3006 3007 3011 3014 3015 3018 3019 3019 3026 3025 3027 3025 3027 3029 3034 3035 3036 3035 3036 3033 3032 3021 3020 3017 3016 3017 3020 3022 3023 3023 3023
2968 2971 2972 2979 2980 2981 2983 2981 2987 2994 2994 2995 2998 3000 2998 3000 3006 3009 3012 3010 3011 3014 3016 3020 3023 3023 3024 3028 3030 3031 3033 3035 3035 3033 3026 3014 3017 3014 3014 3016 3019 3020 3020 3019 3018
2959 2961 2962 2968 2970 2971 2972 2971 2980 2985 2989 2991 2993 2995 2997 2995 3000 3002 3006 3006 3006 3008 3012 3016 3019 3023 3023 3023 3026 3027 3028 3030 3032 3032 3026 3018 3012 3013 3014 3015 3016 3016 3016 3015 3012
2950 2951 2951 2959 2964 2962 2962 2968 2974 2976 2983 2985 2988 2991 2994 2993 2995 2998 3001 3002 3003 3006 3008 3013 3016 3018 3020 3018 3021 3021 3023 3025 3027 3027 3027 3027 3016 3010 3010 3011 3013 3012 3010 3009 3006
2939 2940 2944 2948 2948 2951 2956 2961 2964 2969 2975 2980 2984 2986 2988 2990 2994 2994 2996 2997 3000 3003 3004 3008 3012 3015 3016 3018 3016 3016 3016 3019 3021 3022 3021 3021 3011 3007 3009 3009 3008 3007 3005 3003 3000
2932 2932 2930 2936 2940 2945 2947 2952 2955 2962 2968 2973 2978 2980 2984 2986 2987 2989 2990 2993 2996 2999 3001 3004 3006 3008 3008 3007 3009 3011 3011 3012 3015 3016 3012 3006 3006 3006 3006 3004 3002 3000 2998 2996 2994
2919 2913 2920 2925 2931 2935 2941 2945 2948 2953 2959 2965 2969 2974 2978 2981 2982 2985 2986 2989 2991 2994 2997 3001 3001 3003 3005 3005 3006 3006 3007 3008 3005 3004 3005 3002 3001 3002 3004 3001 2998 2996 2994 2991 2988
2912 2912 2917 2921 2927 2931 2933 2934 2942 2948 2951 2955 2960 2967 2972 2974 2978 2981 2982 2984 2986 2988 2991 2995 2997 2998 3001 3001 3000 3000 2999 2997 2997 2998 2996 2996 2991 2996 2995 2993 2993 2990 2988 2984 2980
2899 2906 2910 2914 2921 2923 2925 2930 2936 2943 2944 2949 2955 2961 2965 2970 2973 2975 2978 2980 2982 2984 2987 2991 2994 2996 2999 2997 2996 2994 2986 2986 2987 2986 2988 2989 2988 2989 2989 2988 2987 2984 2981 2977 2974